[[{"header":{"parameterUnit":"m.s-1","parameterCategory":1,"la1":30.2991,"la2":30.254,"lo1":-89.0895,"lo2":-89.0444,"dy":0.0017,"dx":0.0017,"nx":28,"ny":28,"refTime":"2023-09-13T09:00:00:Z","depth":0,"parameterNumber":2,"parameterNumberName":"U-component_of_WINDS"},"data":[0,0,0,0,0,0,0,0,0,0,0,0,0,0,0,0,0,0,0,0,0,0,0,0,0,0,0,0,0,0,0,0,0,0,0,0,0,0,0,0,0,0,0,0,0,0,0,0,0,0,0,0,0,0,0,0,0,0,1.3904,1.3905,0,1.3977,1.3978,1.3979,1.3961,1.3959,1.3958,1.3957,1.403,1.4033,1.4036,0,0,0,0,0,0,0,0,0,0,0,0,0,1.3747,1.375,1.3904,1.3905,1.3906,1.3977,1.3978,1.3979,1.3961,1.3959,1.3958,1.3956,1.4029,1.4032,1.4036,0,0,0,0,0,0,0,0,0,0,0,0,0,1.3817,1.3751,1.3904,1.3906,1.3907,1.3977,1.3978,1.398,1.3961,1.3959,1.3957,1.3955,1.4027,1.4032,1.4037,1.411,0,0,1.4052,1.4054,0,0,0,0,0,0,0,0,1.3813,1.3823,1.3905,1.3906,1.3907,1.3958,1.3949,1.4023,1.3962,1.3941,1.3957,1.3954,1.4007,1.4014,1.4032,1.4113,1.4116,1.4052,1.4055,1.4057,1.4059,0,0,0,0,0,0,0,1.3808,1.3819,1.3933,1.3906,1.3907,1.3902,1.391,1.3963,1.3985,1.3942,1.3941,1.395,1.4008,1.4027,1.4034,1.4117,1.4052,1.4056,1.406,1.4061,1.426,1.4262,0,0,0,0,0,0,1.3803,1.3815,1.3931,1.3935,1.3854,1.3906,1.3915,1.3944,1.3984,1.3989,1.3952,1.3949,1.402,1.4028,1.4036,1.4122,1.4057,1.4062,1.4065,1.4258,1.4261,1.4263,0,0,0,0,0,0,1.3799,1.3813,1.3928,1.3875,1.3889,1.3912,1.3944,1.3946,1.3966,1.3992,1.3995,1.3968,1.4019,1.4029,1.4091,1.4125,1.4064,1.4069,1.4255,1.4259,1.4262,1.4297,0,0,0,0,0,0,1.3795,1.3812,1.384,1.3876,1.3892,1.3983,1.3946,1.3949,1.3975,1.3972,1.4008,1.4012,1.4018,1.4084,1.4096,1.413,1.4072,1.4252,1.4257,1.4261,1.4293,1.4301,1.4308,0,0,0,0,0,1.3789,1.3847,1.3842,1.3856,1.3928,1.3985,1.3994,1.4,1.3978,1.4006,1.4022,1.4011,1.412,1.4091,1.4104,1.414,1.425,1.4255,1.426,1.4289,1.4299,1.4308,0,0,0,0,0,0,1.3814,1.3852,1.3846,1.3918,1.3948,1.3981,1.4017,1.4011,1.4048,1.4043,1.4049,1.4057,1.412,1.4137,1.4104,1.4212,1.4181,1.419,1.4199,1.4209,1.4216,1.421,1.4076,0,0,0,0,0,1.3829,1.3872,1.3902,1.3962,1.3978,1.3995,1.402,1.4022,1.4053,1.4066,1.4086,1.4117,1.4158,1.4184,1.4224,1.4296,1.4302,1.4327,1.4335,1.4341,1.4347,1.4385,1.4396,1.428,1.428,1.428,0,0,1.3858,1.3883,1.391,1.3968,1.3991,1.4035,1.4006,1.4053,1.4085,1.4073,1.4132,1.4149,1.4183,1.425,1.428,1.4265,1.4381,1.4348,1.4353,1.4356,1.4392,1.4402,1.4412,1.4284,1.4283,1.4283,0,0,1.3932,1.3957,1.4009,1.4033,1.407,1.4081,1.4094,1.4128,1.4138,1.4198,1.4189,1.4227,1.4298,1.4322,1.4344,1.4428,1.4418,1.444,1.448,1.4517,1.4526,1.4534,1.4562,1.4572,1.4447,1.4447,1.4447,0,1.3963,1.4029,1.4036,1.4084,1.4109,1.4101,1.4152,1.4176,1.4223,1.424,1.4223,1.4311,1.4333,1.4405,1.4425,1.4444,1.4457,1.4435,1.4524,1.4532,1.454,1.4566,1.4577,1.4449,1.4449,1.4449,1.4449,0,1.4065,1.411,1.4148,1.4194,1.4223,1.4273,1.4286,1.4315,1.4315,1.4328,1.4388,1.4415,1.4459,1.4476,1.4477,1.4548,1.4537,1.4523,1.4491,1.4553,1.4578,1.4588,1.4453,1.4452,1.4451,1.4451,0,0,1.4156,1.4205,1.4219,1.4239,1.4278,1.4313,1.4363,1.4406,1.4429,1.4463,1.4503,1.4563,1.4549,1.4573,1.4577,1.4609,1.4671,1.459,1.4591,1.4602,1.4749,1.4759,1.477,1.4666,1.4668,1.467,1.4746,0,1.4232,1.4319,1.4326,1.4404,1.4445,1.4438,1.448,1.4509,1.4522,1.4559,1.4573,1.4615,1.4595,1.4609,1.4641,1.4657,1.47,1.4652,1.4702,1.4703,1.4691,1.4784,1.4794,1.4864,1.4756,1.4757,1.4759,0,1.4333,1.4369,1.445,1.4483,1.4501,1.4539,1.4578,1.4614,1.4646,1.4653,1.4681,1.4679,1.4728,1.4697,1.4764,1.4731,1.4752,1.4763,1.4766,1.4769,1.4733,1.4787,1.4887,1.4897,1.4775,1.4773,1.4772,0,1.4388,1.4457,1.4514,1.4532,1.4573,1.4599,1.4617,1.4647,1.4672,1.4707,1.4723,1.4764,1.4785,1.4816,1.4825,1.4801,1.4891,1.4861,1.4897,1.4897,1.4914,1.4913,1.5017,1.4932,1.4932,1.4932,1.4931,0,1.4471,1.4521,1.454,1.4575,1.463,1.4638,1.4692,1.4709,1.4735,1.4773,1.4769,1.4804,1.4815,1.4852,1.486,1.4913,1.4923,1.493,1.4931,1.4929,1.4928,1.4941,1.4936,1.4934,1.4934,1.4933,1.4933,0,1.4542,1.4557,1.4618,1.4652,1.4661,1.47,1.4728,1.4761,1.4774,1.4822,1.4833,1.4853,1.4896,1.4909,1.4961,1.4966,1.5028,1.5026,1.5017,1.5016,1.5051,1.5047,1.5166,1.5181,1.5088,1.5089,1.5089,0,1.4592,1.463,1.4668,1.4693,1.4712,1.4753,1.4778,1.4788,1.4815,1.4854,1.4882,1.4925,1.4959,1.5028,1.5047,1.5086,1.5083,1.5122,1.5089,1.5085,1.5081,1.5078,1.5081,1.5128,1.5129,1.5129,1.513,0,1.4681,1.4686,1.4724,1.4764,1.4795,1.4827,1.4857,1.4878,1.4892,1.4922,1.4966,1.4993,1.5046,1.5087,1.5127,1.5145,1.5139,1.5141,1.5151,1.5148,1.5141,1.5143,1.5032,1.5137,1.5137,1.5136,1.5136,1.5135,1.4741,1.4774,1.4805,1.4847,1.4871,1.49,1.4932,1.495,1.4987,1.5031,1.5034,1.5082,1.5112,1.5165,1.5185,1.5221,1.521,1.5225,1.5228,1.5231,1.5233,1.5137,1.5229,1.5229,1.5228,1.5228,1.5228,0,1.4827,1.4847,1.4886,1.4929,1.4961,1.4955,1.4988,1.5015,1.5057,1.5086,1.512,1.517,1.5211,1.5233,1.5273,1.5298,1.5296,1.5308,1.5305,1.5309,1.5242,1.5228,1.5308,1.5308,1.5308,1.5308,1.5308,1.5308,1.4876,1.493,1.494,1.5006,1.5025,1.5072,1.5091,1.5117,1.514,1.5197,1.523,1.5245,1.5271,1.5313,1.5349,1.5355,1.5369,1.5382,1.5385,1.5322,1.5314,1.5306,1.5293,1.5385,1.5385,1.5449,1.545,1.545]},{"header":{"parameterUnit":"m.s-1","parameterCategory":1,"la1":30.2991,"la2":30.254,"lo1":-89.0895,"lo2":-89.0444,"dy":0.0017,"dx":0.0017,"nx":28,"ny":28,"refTime":"2023-09-13T09:00:00:Z","depth":0,"parameterNumber":3,"parameterNumberName":"V-component_of_WINDS"},"data":[0,0,0,0,0,0,0,0,0,0,0,0,0,0,0,0,0,0,0,0,0,0,0,0,0,0,0,0,0,0,0,0,0,0,0,0,0,0,0,0,0,0,0,0,0,0,0,0,0,0,0,0,0,0,0,0,0,0,1.2899,1.2899,0,1.2831,1.283,1.2829,1.2755,1.2754,1.2753,1.2752,1.2681,1.268,1.2679,0,0,0,0,0,0,0,0,0,0,0,0,0,1.2965,1.2965,1.2899,1.2898,1.2898,1.2831,1.283,1.2829,1.2756,1.2754,1.2753,1.2752,1.2681,1.268,1.2679,0,0,0,0,0,0,0,0,0,0,0,0,0,1.2921,1.2964,1.2899,1.2853,1.2848,1.2831,1.283,1.2829,1.2756,1.2754,1.2753,1.2751,1.2682,1.268,1.2679,1.2701,0,0,1.2675,1.2674,0,0,0,0,0,0,0,0,1.2923,1.2918,1.2861,1.2856,1.2851,1.28,1.2827,1.2786,1.2756,1.2791,1.2752,1.2751,1.2722,1.2717,1.2707,1.2698,1.2695,1.2674,1.2674,1.2673,1.2673,0,0,0,0,0,0,0,1.2927,1.2921,1.2872,1.286,1.2854,1.2835,1.2827,1.2819,1.2766,1.2788,1.2782,1.2775,1.2719,1.2709,1.2705,1.2694,1.2674,1.2673,1.2672,1.2672,1.2698,1.2699,0,0,0,0,0,0,1.2937,1.2924,1.2874,1.287,1.2884,1.2835,1.2826,1.2818,1.2766,1.2756,1.2777,1.2772,1.2712,1.2707,1.2702,1.2724,1.2673,1.2672,1.2671,1.2696,1.2698,1.27,0,0,0,0,0,0,1.2939,1.2933,1.2877,1.2895,1.2887,1.2836,1.2827,1.2817,1.2807,1.2757,1.2747,1.2777,1.2711,1.2704,1.2702,1.2721,1.2671,1.267,1.2695,1.2697,1.2699,1.2769,0,0,0,0,0,0,1.2941,1.2934,1.2943,1.2896,1.2886,1.2878,1.2828,1.2817,1.2805,1.2799,1.2755,1.2746,1.2709,1.2704,1.2701,1.2718,1.2669,1.2693,1.2696,1.2698,1.2764,1.2773,1.278,0,0,0,0,0,1.2944,1.2965,1.2944,1.2938,1.2896,1.288,1.2874,1.2831,1.2807,1.2815,1.2783,1.2747,1.272,1.2705,1.27,1.2717,1.2691,1.2695,1.2698,1.2761,1.2771,1.278,0,0,0,0,0,0,1.3015,1.2958,1.2934,1.2941,1.2916,1.2867,1.2876,1.2844,1.2825,1.2819,1.2767,1.2758,1.2761,1.2739,1.2723,1.2735,1.27,1.2703,1.275,1.2759,1.2767,1.2772,1.2667,0,0,0,0,0,1.3031,1.3023,1.2974,1.2985,1.2974,1.2927,1.2919,1.2888,1.286,1.2849,1.2816,1.2789,1.2774,1.2766,1.2749,1.2761,1.275,1.277,1.2778,1.2785,1.2788,1.2791,1.2799,1.2711,1.2711,1.2711,0,0,1.3065,1.3033,1.3032,1.2999,1.2976,1.2968,1.2919,1.2913,1.2906,1.2847,1.2843,1.2818,1.2785,1.279,1.279,1.2771,1.2809,1.279,1.2795,1.2794,1.2795,1.2804,1.2811,1.2714,1.2713,1.2713,0,0,1.3123,1.3099,1.3105,1.3083,1.3048,1.3017,1.3019,1.2975,1.2956,1.2951,1.2906,1.2898,1.2874,1.2851,1.2837,1.2886,1.2852,1.2882,1.2924,1.2927,1.2934,1.294,1.2956,1.2963,1.2885,1.2885,1.2886,0,1.3169,1.3156,1.3112,1.3108,1.3095,1.3042,1.3047,1.3027,1.299,1.2981,1.2961,1.2928,1.2903,1.29,1.2912,1.2903,1.2902,1.2887,1.2937,1.2942,1.2947,1.2962,1.2968,1.2889,1.2889,1.2888,1.2888,0,1.3214,1.3206,1.3215,1.318,1.3167,1.3168,1.3123,1.3116,1.3087,1.3057,1.3052,1.3019,1.2995,1.2992,1.2964,1.2986,1.2975,1.2947,1.291,1.296,1.2973,1.2978,1.2895,1.2893,1.2892,1.2891,0,0,1.3314,1.3254,1.3258,1.3241,1.3199,1.3191,1.319,1.3166,1.316,1.3136,1.3133,1.3113,1.3087,1.307,1.3039,1.3043,1.3082,1.3013,1.3012,1.3026,1.3103,1.3123,1.3131,1.306,1.3061,1.3062,1.3105,0,1.3363,1.3357,1.3317,1.3322,1.3313,1.3263,1.3261,1.3235,1.3208,1.3195,1.3165,1.3152,1.3118,1.3108,1.3109,1.3077,1.3096,1.3073,1.3055,1.3055,1.3063,1.3137,1.3159,1.3202,1.311,1.3111,1.3111,0,1.3419,1.3399,1.3403,1.3361,1.3355,1.3355,1.3329,1.3319,1.3288,1.3268,1.325,1.3214,1.3209,1.3176,1.3167,1.3152,1.3142,1.3125,1.3126,1.3121,1.3085,1.3134,1.3214,1.322,1.3119,1.3118,1.3118,0,1.349,1.3463,1.3462,1.3449,1.34,1.34,1.338,1.3348,1.3336,1.3314,1.3305,1.3283,1.327,1.3253,1.3213,1.3193,1.3208,1.3172,1.319,1.3191,1.3194,1.3194,1.3273,1.319,1.319,1.319,1.319,0,1.3548,1.3552,1.3493,1.3492,1.3495,1.3449,1.3453,1.3427,1.3399,1.3392,1.3347,1.3341,1.3289,1.3276,1.3245,1.3241,1.3236,1.3219,1.321,1.3222,1.3224,1.3214,1.3209,1.3192,1.3192,1.3191,1.3191,0,1.3626,1.3587,1.3582,1.3536,1.3525,1.3529,1.3489,1.3486,1.3456,1.3448,1.3443,1.3396,1.3379,1.3338,1.331,1.3288,1.3293,1.3278,1.3304,1.3298,1.3318,1.3316,1.3392,1.3399,1.3313,1.3314,1.3315,0,1.3665,1.3667,1.3622,1.3614,1.3595,1.3583,1.3571,1.3526,1.3514,1.3479,1.348,1.346,1.3442,1.3417,1.338,1.3359,1.3342,1.337,1.3338,1.335,1.334,1.334,1.3339,1.3376,1.3377,1.3378,1.3379,0,1.3738,1.3718,1.3702,1.368,1.3666,1.3646,1.3624,1.362,1.3568,1.3558,1.3541,1.3526,1.3498,1.3478,1.3451,1.3429,1.3395,1.339,1.3392,1.3404,1.3418,1.3409,1.3321,1.3388,1.3387,1.3386,1.3386,1.3385,1.3796,1.3795,1.3763,1.3747,1.3725,1.3705,1.37,1.3669,1.3654,1.3628,1.3602,1.3587,1.3555,1.3515,1.3496,1.3483,1.3465,1.347,1.3471,1.3472,1.3477,1.3422,1.3478,1.3478,1.3477,1.3477,1.3477,0,1.3865,1.3842,1.3828,1.3797,1.3785,1.3755,1.3728,1.3719,1.3707,1.368,1.3663,1.3643,1.3623,1.3585,1.3562,1.3559,1.3543,1.3554,1.3553,1.3549,1.3495,1.3494,1.3568,1.3568,1.3568,1.3568,1.3568,1.3568,1.39,1.3896,1.3873,1.3858,1.3835,1.382,1.3807,1.3788,1.3767,1.3746,1.373,1.3705,1.3674,1.3648,1.3629,1.3618,1.3611,1.3627,1.3611,1.3561,1.3553,1.3544,1.3543,1.3626,1.3626,1.3666,1.3666,1.3667]}]]